Lakeview, OR

11:08 AM PST on February 20, 2017 (GMT -0800)
Lake County

Weather History for KLKV - May, 2013

Change the Weather History Date:

Wednesday, May 29, 2013

  Actual Average Record
Temperature  
Mean Temperature 52 °F -  
Max Temperature 62 °F 68 °F 96 °F (1986)
Min Temperature 41 °F 40 °F 25 °F (1989)
Degree Days  
Heating Degree Days 14    
Growing Degree Days 2 (Base 50)    
Moisture  
Dew Point 35 °F    
Average Humidity 55    
Maximum Humidity 87    
Minimum Humidity 29    
Precipitation  
Precipitation 0.00 in - - ()
Sea Level Pressure  
Sea Level Pressure 29.90 in    
Wind  
Wind Speed 12 mph (WSW)    
Max Wind Speed 18 mph    
Max Gust Speed 26 mph    
Visibility 10 miles    
Events      
Averages and records for this station are not official NWS values.
T = Trace of Precipitation, MM = Missing Value Source: NWS Daily Summary

Daily Weather History Graph

Daily Weather History Graph

Search for Another Location

Airport or City:

Trip Planner

Search our weather history database for the weather conditions in past years. The results will help you decide how hot, cold, wet, or windy it might be!

Date:

Astronomy

May. 29, 2013 Rise Set
Actual Time 5:29 AM PDT 8:29 PM PDT
Civil Twilight 4:55 AM PDT 9:02 PM PDT
Nautical Twilight 4:13 AM PDT 9:45 PM PDT
Astronomical Twilight 3:23 AM PDT 10:35 PM PDT
Moon No Moon Rise 10:37 AM PDT (5/29)
Length of Visible Light 16h 06m
Length of Day
14h 59m
Waning Gibbous, 72% of the Moon is Illuminated
May 29
Waning Gibbous
May 31
Last Quarter
Jun 8
New
Jun 16
First Quarter
Jun 23
Full

Hourly Weather History & Observations

Time (PDT) Temp. Windchill Dew Point Humidity Pressure Visibility Wind Dir Wind Speed Gust Speed Precip Events Conditions
12:15 AM 51.8 °F - 42.8 °F 71% 29.85 in 10.0 mi South 15.0 mph 18.4 mph N/A   Overcast
12:35 AM 51.8 °F - 41.0 °F 67% 29.85 in 10.0 mi South 10.4 mph - N/A   Overcast
12:55 AM 50.0 °F - 42.8 °F 76% 29.83 in 10.0 mi SE 15.0 mph - N/A   Overcast
1:15 AM 50.0 °F - 42.8 °F 76% 29.83 in 10.0 mi SSE 9.2 mph 19.6 mph N/A   Overcast
1:35 AM 50.0 °F - 41.0 °F 71% 29.83 in 10.0 mi South 12.7 mph 23.0 mph N/A   Overcast
1:55 AM 50.0 °F - 39.2 °F 66% 29.83 in 10.0 mi SSW 9.2 mph - N/A   Overcast
2:15 AM 48.2 °F - 41.0 °F 76% 29.84 in 10.0 mi SSW 16.1 mph 20.7 mph N/A   Overcast
2:35 AM 46.4 °F 41.9 °F 42.8 °F 87% 29.82 in 10.0 mi South 9.2 mph - N/A   Overcast
2:55 AM 48.2 °F - 42.8 °F 82% 29.82 in 10.0 mi South 11.5 mph - N/A   Overcast
3:15 AM 46.4 °F 40.7 °F 42.8 °F 87% 29.82 in 10.0 mi South 12.7 mph 19.6 mph N/A   Overcast
3:35 AM 46.4 °F 40.7 °F 42.8 °F 87% 29.82 in 10.0 mi South 12.7 mph - N/A   Overcast
3:55 AM 48.2 °F - 42.8 °F 82% 29.81 in 10.0 mi South 12.7 mph - N/A   Mostly Cloudy
4:15 AM 48.2 °F - 42.8 °F 82% 29.81 in 10.0 mi South 11.5 mph 16.1 mph N/A   Overcast
4:35 AM 46.4 °F 40.1 °F 42.8 °F 87% 29.81 in 10.0 mi SSW 15.0 mph - N/A   Overcast
4:55 AM 46.4 °F 42.4 °F 42.8 °F 87% 29.82 in 10.0 mi SW 8.1 mph - N/A   Overcast
5:15 AM 46.4 °F 41.9 °F 41.0 °F 81% 29.82 in 10.0 mi SSW 9.2 mph - N/A   Overcast
5:35 AM 46.4 °F 41.5 °F 41.0 °F 81% 29.82 in 10.0 mi SW 10.4 mph 20.7 mph N/A   Mostly Cloudy
5:55 AM 46.4 °F 40.4 °F 39.2 °F 76% 29.83 in 10.0 mi SW 13.8 mph - N/A   Scattered Clouds
6:15 AM 46.4 °F 40.7 °F 37.4 °F 71% 29.83 in 10.0 mi WSW 12.7 mph - N/A   Partly Cloudy
6:35 AM 46.4 °F 39.8 °F 37.4 °F 71% 29.84 in 10.0 mi SW 16.1 mph 19.6 mph N/A   Mostly Cloudy
6:55 AM 46.4 °F 40.1 °F 35.6 °F 66% 29.85 in 10.0 mi SW 15.0 mph 21.9 mph N/A   Mostly Cloudy
7:15 AM 46.4 °F 40.7 °F 35.6 °F 66% 29.86 in 10.0 mi WSW 12.7 mph 18.4 mph N/A   Mostly Cloudy
7:35 AM 46.4 °F 39.2 °F 35.6 °F 66% 29.86 in 10.0 mi WSW 18.4 mph 25.3 mph N/A   Mostly Cloudy
7:55 AM 46.4 °F 40.7 °F 35.6 °F 66% 29.87 in 10.0 mi WSW 12.7 mph 17.3 mph N/A   Overcast
8:15 AM 44.6 °F 37.4 °F 37.4 °F 76% 29.88 in 8.0 mi WSW 16.1 mph 23.0 mph N/A   Overcast
8:35 AM 46.4 °F 41.5 °F 39.2 °F 76% 29.90 in 10.0 mi West 10.4 mph - N/A   Mostly Cloudy
8:55 AM 51.8 °F - 37.4 °F 58% 29.90 in 10.0 mi WSW 11.5 mph 19.6 mph N/A   Mostly Cloudy
9:15 AM 51.8 °F - 37.4 °F 58% 29.90 in 10.0 mi SW 12.7 mph - N/A   Overcast
9:35 AM 53.6 °F - 35.6 °F 51% 29.91 in 10.0 mi West 10.4 mph 18.4 mph N/A   Mostly Cloudy
9:55 AM 53.6 °F - 33.8 °F 47% 29.91 in 10.0 mi WSW 12.7 mph - N/A   Mostly Cloudy
10:15 AM 53.6 °F - 35.6 °F 51% 29.92 in 10.0 mi WSW 10.4 mph - N/A   Overcast
10:35 AM 53.6 °F - 33.8 °F 47% 29.92 in 10.0 mi WSW 11.5 mph 17.3 mph N/A   Overcast
10:55 AM 55.4 °F - 33.8 °F 44% 29.92 in 10.0 mi WSW 12.7 mph 16.1 mph N/A   Overcast
11:15 AM 53.6 °F - 32.0 °F 44% 29.92 in 10.0 mi West 10.4 mph - N/A   Mostly Cloudy
11:35 AM 55.4 °F - 35.6 °F 47% 29.92 in 10.0 mi SW 12.7 mph - N/A   Overcast
11:55 AM 55.4 °F - 32.0 °F 41% 29.92 in 10.0 mi West 12.7 mph 20.7 mph N/A   Mostly Cloudy
12:15 PM 55.4 °F - 32.0 °F 41% 29.93 in 10.0 mi West 6.9 mph 20.7 mph N/A   Overcast
12:35 PM 55.4 °F - 30.2 °F 38% 29.93 in 10.0 mi West 12.7 mph 23.0 mph N/A   Overcast
12:55 PM 57.2 °F - 32.0 °F 38% 29.93 in 10.0 mi WSW 16.1 mph 20.7 mph N/A   Overcast
1:15 PM 57.2 °F - 30.2 °F 36% 29.93 in 10.0 mi West 12.7 mph 21.9 mph N/A   Overcast
1:35 PM 57.2 °F - 32.0 °F 38% 29.93 in 10.0 mi WSW 17.3 mph 21.9 mph N/A   Overcast
1:55 PM 60.8 °F - 33.8 °F 36% 29.92 in 10.0 mi West 15.0 mph 23.0 mph N/A   Overcast
2:15 PM 60.8 °F - 30.2 °F 31% 29.93 in 10.0 mi WSW 13.8 mph 26.5 mph N/A   Mostly Cloudy
2:35 PM 62.6 °F - 30.2 °F 30% 29.93 in 10.0 mi West 16.1 mph 24.2 mph N/A   Mostly Cloudy
2:55 PM 60.8 °F - 28.4 °F 29% 29.93 in 10.0 mi WSW 9.2 mph 20.7 mph N/A   Mostly Cloudy
3:15 PM 62.6 °F - 30.2 °F 30% 29.93 in 10.0 mi West 11.5 mph 20.7 mph N/A   Mostly Cloudy
3:35 PM 62.6 °F - 30.2 °F 30% 29.94 in 10.0 mi West 17.3 mph 23.0 mph N/A   Mostly Cloudy
3:55 PM 59.0 °F - 30.2 °F 34% 29.94 in 10.0 mi West 13.8 mph 23.0 mph N/A   Mostly Cloudy
4:15 PM 57.2 °F - 28.4 °F 33% 29.93 in 10.0 mi West 10.4 mph - N/A   Overcast
4:35 PM 60.8 °F - 28.4 °F 29% 29.93 in 10.0 mi West 11.5 mph - N/A   Mostly Cloudy
4:55 PM 60.8 °F - 28.4 °F 29% 29.94 in 10.0 mi West 12.7 mph 25.3 mph N/A   Mostly Cloudy
5:15 PM 60.8 °F - 28.4 °F 29% 29.94 in 10.0 mi West 13.8 mph 21.9 mph N/A   Mostly Cloudy
5:35 PM 59.0 °F - 28.4 °F 31% 29.93 in 10.0 mi West 11.5 mph 16.1 mph N/A   Mostly Cloudy
5:55 PM 57.2 °F - 30.2 °F 36% 29.93 in 10.0 mi West 12.7 mph 18.4 mph N/A   Overcast
6:15 PM 57.2 °F - 30.2 °F 36% 29.93 in 10.0 mi WSW 13.8 mph 19.6 mph N/A   Mostly Cloudy
6:35 PM 59.0 °F - 30.2 °F 34% 29.93 in 10.0 mi WSW 12.7 mph - N/A   Overcast
6:55 PM 59.0 °F - 30.2 °F 34% 29.93 in 10.0 mi West 16.1 mph - N/A   Mostly Cloudy
7:15 PM 57.2 °F - 28.4 °F 33% 29.93 in 10.0 mi West 13.8 mph - N/A   Partly Cloudy
7:35 PM 57.2 °F - 30.2 °F 36% 29.94 in 10.0 mi West 10.4 mph - N/A   Scattered Clouds
7:55 PM 55.4 °F - 30.2 °F 38% 29.94 in 10.0 mi West 10.4 mph - N/A   Mostly Cloudy
8:15 PM 53.6 °F - 30.2 °F 41% 29.95 in 10.0 mi West 9.2 mph - N/A   Scattered Clouds
8:35 PM 50.0 °F - 30.2 °F 47% 29.95 in 10.0 mi West 9.2 mph - N/A   Clear
8:55 PM 48.2 °F - 30.2 °F 50% 29.95 in 10.0 mi West 11.5 mph - N/A   Clear
9:15 PM 46.4 °F 41.5 °F 30.2 °F 53% 29.95 in 10.0 mi WNW 10.4 mph - N/A   Clear
9:35 PM 46.4 °F 41.9 °F 30.2 °F 53% 29.96 in 10.0 mi NW 9.2 mph - N/A   Clear
9:55 PM 46.4 °F 43.5 °F 30.2 °F 53% 29.98 in 10.0 mi NW 5.8 mph - N/A   Clear
10:15 PM 42.8 °F 40.1 °F 32.0 °F 66% 29.99 in 10.0 mi North 4.6 mph - N/A   Clear
10:35 PM 44.6 °F 42.2 °F 30.2 °F 57% 30.00 in 10.0 mi NW 4.6 mph - N/A   Scattered Clouds
10:55 PM 42.8 °F 38.6 °F 30.2 °F 61% 30.00 in 10.0 mi NW 6.9 mph - N/A   Mostly Cloudy
11:15 PM 41.0 °F 36.4 °F 30.2 °F 65% 30.01 in 10.0 mi WNW 6.9 mph - N/A   Overcast
11:35 PM 44.6 °F 40.7 °F 32.0 °F 61% 30.01 in 10.0 mi West 6.9 mph - N/A   Overcast
11:55 PM 42.8 °F 40.1 °F 33.8 °F 70% 30.02 in 10.0 mi SSW 4.6 mph - N/A   Overcast